Time,TemperatureF,DewpointF,PressureIn,WindDirection,WindDirectionDegrees,WindSpeedMPH,WindSpeedGustMPH,Humidity,HourlyPrecipIn,Conditions,Clouds,dailyrainin,SoftwareType,DateUTC
2013-01-20 00:00:00,42.1,30.7,30.22,NW,312,0.0,1.0,64,0.00,,,0.00,meteohub,2013-01-20 06:00:00,
2013-01-20 00:05:00,42.1,30.7,30.21,NW,312,0.0,1.0,64,0.00,,,0.00,meteohub,2013-01-20 06:05:00,
2013-01-20 00:10:00,41.9,30.6,30.21,NW,312,0.0,0.0,64,0.00,,,0.00,meteohub,2013-01-20 06:10:00,
2013-01-20 00:15:00,41.7,30.4,30.21,NW,312,0.0,0.0,64,0.00,,,0.00,meteohub,2013-01-20 06:15:00,
2013-01-20 00:20:00,41.7,30.4,30.21,NW,312,0.0,0.0,64,0.00,,,0.00,meteohub,2013-01-20 06:20:00,
2013-01-20 00:25:00,41.7,30.4,30.21,NW,312,0.0,0.0,64,0.00,,,0.00,meteohub,2013-01-20 06:25:00,
2013-01-20 00:30:00,41.7,30.4,30.21,NW,312,0.0,0.0,64,0.00,,,0.00,meteohub,2013-01-20 06:30:00,
2013-01-20 00:35:00,41.7,30.4,30.21,NW,312,0.0,0.0,64,0.00,,,0.00,meteohub,2013-01-20 06:35:00,
2013-01-20 00:40:00,41.5,30.2,30.20,NW,311,0.0,4.0,64,0.00,,,0.00,meteohub,2013-01-20 06:40:00,
2013-01-20 00:45:00,41.4,30.0,30.20,NW,311,0.0,4.0,64,0.00,,,0.00,meteohub,2013-01-20 06:45:00,
2013-01-20 00:50:00,41.2,30.0,30.20,NW,311,0.0,5.0,64,0.00,,,0.00,meteohub,2013-01-20 06:50:00,
2013-01-20 00:55:00,40.8,30.0,30.20,NW,311,0.0,5.0,65,0.00,,,0.00,meteohub,2013-01-20 06:55:00,
2013-01-20 01:00:00,40.6,30.2,30.20,NW,311,0.0,0.0,66,0.00,,,0.00,meteohub,2013-01-20 07:00:00,
2013-01-20 01:05:00,40.5,30.0,30.20,NW,311,0.0,0.0,66,0.00,,,0.00,meteohub,2013-01-20 07:05:00,
2013-01-20 01:11:00,40.3,29.8,30.20,NW,311,0.0,0.0,66,0.00,,,0.00,meteohub,2013-01-20 07:11:00,
2013-01-20 01:15:00,39.9,29.8,30.20,NW,311,0.0,0.0,67,0.00,,,0.00,meteohub,2013-01-20 07:15:00,
2013-01-20 01:21:00,39.9,29.8,30.20,NW,311,0.0,0.0,67,0.00,,,0.00,meteohub,2013-01-20 07:21:00,
2013-01-20 01:26:00,39.7,29.7,30.20,NW,311,0.0,0.0,67,0.00,,,0.00,meteohub,2013-01-20 07:26:00,
2013-01-20 01:31:00,39.7,29.7,30.20,NW,311,0.0,0.0,67,0.00,,,0.00,meteohub,2013-01-20 07:31:00,
2013-01-20 01:36:00,39.6,29.5,30.20,NW,311,0.0,0.0,67,0.00,,,0.00,meteohub,2013-01-20 07:36:00,
2013-01-20 01:41:00,39.6,29.8,30.20,NW,311,0.0,0.0,68,0.00,,,0.00,meteohub,2013-01-20 07:41:00,
2013-01-20 01:46:00,39.6,29.8,30.21,NW,311,0.0,0.0,68,0.00,,,0.00,meteohub,2013-01-20 07:46:00,
2013-01-20 01:51:00,39.6,29.8,30.21,NW,311,0.0,0.0,68,0.00,,,0.00,meteohub,2013-01-20 07:51:00,
2013-01-20 01:56:00,39.6,29.8,30.21,NW,311,0.0,0.0,68,0.00,,,0.00,meteohub,2013-01-20 07:56:00,
2013-01-20 02:01:00,39.6,29.8,30.21,NW,311,0.0,0.0,68,0.00,,,0.00,meteohub,2013-01-20 08:01:00,
2013-01-20 02:06:00,39.6,29.8,30.21,NW,311,0.0,0.0,68,0.00,,,0.00,meteohub,2013-01-20 08:06:00,
2013-01-20 02:11:00,39.6,29.5,30.21,NW,311,0.0,0.0,67,0.00,,,0.00,meteohub,2013-01-20 08:11:00,
2013-01-20 02:16:00,39.6,29.5,30.21,NW,311,0.0,0.0,67,0.00,,,0.00,meteohub,2013-01-20 08:16:00,
2013-01-20 02:21:00,39.6,29.5,30.21,NW,311,0.0,0.0,67,0.00,,,0.00,meteohub,2013-01-20 08:21:00,
2013-01-20 02:26:00,39.6,29.1,30.21,NW,311,0.0,0.0,66,0.00,,,0.00,meteohub,2013-01-20 08:26:00,
2013-01-20 02:31:00,39.4,29.3,30.21,NW,311,0.0,0.0,67,0.00,,,0.00,meteohub,2013-01-20 08:31:00,
2013-01-20 02:36:00,39.2,29.1,30.21,NW,311,0.0,0.0,67,0.00,,,0.00,meteohub,2013-01-20 08:36:00,
2013-01-20 02:41:00,38.8,28.8,30.21,NW,311,0.0,0.0,67,0.00,,,0.00,meteohub,2013-01-20 08:41:00,
2013-01-20 02:46:00,38.8,29.1,30.21,NW,311,0.0,0.0,68,0.00,,,0.00,meteohub,2013-01-20 08:46:00,
2013-01-20 02:51:00,38.7,28.9,30.21,NW,311,0.0,0.0,68,0.00,,,0.00,meteohub,2013-01-20 08:51:00,
2013-01-20 02:56:00,38.5,28.8,30.21,NW,311,0.0,0.0,68,0.00,,,0.00,meteohub,2013-01-20 08:56:00,
2013-01-20 03:01:00,38.1,28.6,30.21,NW,311,0.0,0.0,68,0.00,,,0.00,meteohub,2013-01-20 09:01:00,
2013-01-20 03:06:00,37.9,28.8,30.21,NW,311,0.0,0.0,69,0.00,,,0.00,meteohub,2013-01-20 09:06:00,
2013-01-20 03:11:00,37.6,28.8,30.21,NW,311,0.0,0.0,70,0.00,,,0.00,meteohub,2013-01-20 09:11:00,
2013-01-20 03:16:00,37.2,28.8,30.21,NW,311,0.0,0.0,71,0.00,,,0.00,meteohub,2013-01-20 09:16:00,
2013-01-20 03:21:00,37.2,29.1,30.21,NW,311,0.0,0.0,72,0.00,,,0.00,meteohub,2013-01-20 09:21:00,
2013-01-20 03:26:00,37.2,28.8,30.20,NW,311,0.0,0.0,71,0.00,,,0.00,meteohub,2013-01-20 09:26:00,
2013-01-20 03:31:00,37.2,29.1,30.21,NW,311,0.0,0.0,72,0.00,,,0.00,meteohub,2013-01-20 09:31:00,
2013-01-20 03:36:00,37.2,29.1,30.21,NW,311,0.0,0.0,72,0.00,,,0.00,meteohub,2013-01-20 09:36:00,
2013-01-20 03:41:00,37.4,29.1,30.21,NW,311,0.0,0.0,72,0.00,,,0.00,meteohub,2013-01-20 09:41:00,
2013-01-20 03:46:00,37.4,28.9,30.20,NW,311,0.0,0.0,71,0.00,,,0.00,meteohub,2013-01-20 09:46:00,
2013-01-20 03:51:00,37.4,28.9,30.21,NW,311,0.0,0.0,71,0.00,,,0.00,meteohub,2013-01-20 09:51:00,
2013-01-20 03:56:00,37.4,29.1,30.21,NW,311,0.0,0.0,72,0.00,,,0.00,meteohub,2013-01-20 09:56:00,
2013-01-20 04:01:00,37.4,29.1,30.21,NW,311,0.0,0.0,72,0.00,,,0.00,meteohub,2013-01-20 10:01:00,
2013-01-20 04:06:00,37.6,29.3,30.20,NW,311,0.0,0.0,72,0.00,,,0.00,meteohub,2013-01-20 10:06:00,
2013-01-20 04:11:00,37.4,29.1,30.21,NW,311,0.0,0.0,72,0.00,,,0.00,meteohub,2013-01-20 10:11:00,
2013-01-20 04:16:00,37.2,29.1,30.21,NW,311,0.0,0.0,72,0.00,,,0.00,meteohub,2013-01-20 10:16:00,
2013-01-20 04:21:00,37.2,29.1,30.21,NW,311,0.0,0.0,72,0.00,,,0.00,meteohub,2013-01-20 10:21:00,
2013-01-20 04:27:00,37.2,29.3,30.21,NW,311,0.0,0.0,73,0.00,,,0.00,meteohub,2013-01-20 10:27:00,
2013-01-20 04:32:00,37.2,29.3,30.20,NW,311,0.0,0.0,73,0.00,,,0.00,meteohub,2013-01-20 10:32:00,
2013-01-20 04:37:00,37.2,29.3,30.21,NW,311,0.0,0.0,73,0.00,,,0.00,meteohub,2013-01-20 10:37:00,
2013-01-20 04:42:00,37.0,29.1,30.21,NW,311,0.0,0.0,73,0.00,,,0.00,meteohub,2013-01-20 10:42:00,
2013-01-20 04:47:00,36.9,28.9,30.21,NW,311,0.0,0.0,73,0.00,,,0.00,meteohub,2013-01-20 10:47:00,
2013-01-20 04:52:00,36.7,29.1,30.21,NW,311,0.0,0.0,74,0.00,,,0.00,meteohub,2013-01-20 10:52:00,
2013-01-20 04:57:00,36.5,28.9,30.21,NW,311,0.0,0.0,74,0.00,,,0.00,meteohub,2013-01-20 10:57:00,
2013-01-20 05:02:00,36.3,28.8,30.21,NW,311,0.0,2.0,74,0.00,,,0.00,meteohub,2013-01-20 11:02:00,
2013-01-20 05:07:00,36.3,29.1,30.21,NW,311,0.0,2.0,75,0.00,,,0.00,meteohub,2013-01-20 11:07:00,
2013-01-20 05:12:00,36.1,28.9,30.21,NW,311,0.0,2.0,75,0.00,,,0.00,meteohub,2013-01-20 11:12:00,
2013-01-20 05:17:00,36.1,28.9,30.21,NW,311,0.0,2.0,75,0.00,,,0.00,meteohub,2013-01-20 11:17:00,
2013-01-20 05:22:00,36.1,28.9,30.21,NW,311,0.0,0.0,75,0.00,,,0.00,meteohub,2013-01-20 11:22:00,
2013-01-20 05:27:00,36.1,28.9,30.21,NW,311,0.0,0.0,75,0.00,,,0.00,meteohub,2013-01-20 11:27:00,
2013-01-20 05:32:00,36.1,28.9,30.21,NW,311,0.0,0.0,75,0.00,,,0.00,meteohub,2013-01-20 11:32:00,
2013-01-20 05:37:00,36.3,28.8,30.20,NW,311,0.0,0.0,74,0.00,,,0.00,meteohub,2013-01-20 11:37:00,
2013-01-20 05:42:00,36.1,28.4,30.20,NW,311,0.0,0.0,73,0.00,,,0.00,meteohub,2013-01-20 11:42:00,
2013-01-20 05:47:00,35.8,28.4,30.20,NW,311,0.0,0.0,74,0.00,,,0.00,meteohub,2013-01-20 11:47:00,
2013-01-20 05:52:00,35.4,28.0,30.20,NW,311,0.0,0.0,74,0.00,,,0.00,meteohub,2013-01-20 11:52:00,
2013-01-20 05:57:00,35.2,28.0,30.21,NW,311,0.0,0.0,75,0.00,,,0.00,meteohub,2013-01-20 11:57:00,
2013-01-20 06:02:00,34.9,28.0,30.21,NW,311,0.0,0.0,76,0.00,,,0.00,meteohub,2013-01-20 12:02:00,
2013-01-20 06:07:00,34.5,28.0,30.21,NW,311,0.0,0.0,77,0.00,,,0.00,meteohub,2013-01-20 12:07:00,
2013-01-20 06:12:00,34.3,27.9,30.20,NW,311,0.0,0.0,77,0.00,,,0.00,meteohub,2013-01-20 12:12:00,
2013-01-20 06:17:00,34.2,27.7,30.20,NW,311,0.0,0.0,77,0.00,,,0.00,meteohub,2013-01-20 12:17:00,
2013-01-20 06:22:00,34.0,27.9,30.20,NW,311,0.0,0.0,78,0.00,,,0.00,meteohub,2013-01-20 12:22:00,
2013-01-20 06:27:00,34.0,28.2,30.20,NW,311,0.0,0.0,79,0.00,,,0.00,meteohub,2013-01-20 12:27:00,
2013-01-20 06:32:00,33.8,29.5,30.20,NW,311,0.0,0.0,84,0.00,,,0.00,meteohub,2013-01-20 12:32:00,
2013-01-20 06:37:00,33.6,27.9,30.20,NW,311,0.0,0.0,79,0.00,,,0.00,meteohub,2013-01-20 12:37:00,
2013-01-20 06:42:00,33.6,28.0,30.20,NW,311,0.0,0.0,80,0.00,,,0.00,meteohub,2013-01-20 12:42:00,
2013-01-20 06:47:00,33.4,27.9,30.20,NW,311,0.0,0.0,80,0.00,,,0.00,meteohub,2013-01-20 12:47:00,
2013-01-20 06:52:00,33.4,27.9,30.20,NW,311,0.0,0.0,80,0.00,,,0.00,meteohub,2013-01-20 12:52:00,
2013-01-20 06:57:00,33.4,27.9,30.20,NW,311,0.0,0.0,80,0.00,,,0.00,meteohub,2013-01-20 12:57:00,
2013-01-20 07:02:00,33.3,27.7,30.21,NW,311,0.0,0.0,80,0.00,,,0.00,meteohub,2013-01-20 13:02:00,
2013-01-20 07:07:00,33.3,28.0,30.21,NW,311,0.0,0.0,81,0.00,,,0.00,meteohub,2013-01-20 13:07:00,
2013-01-20 07:12:00,33.3,28.0,30.21,NW,311,0.0,0.0,81,0.00,,,0.00,meteohub,2013-01-20 13:12:00,
2013-01-20 07:18:00,33.3,28.0,30.21,NW,311,0.0,0.0,81,0.00,,,0.00,meteohub,2013-01-20 13:18:00,
2013-01-20 07:23:00,33.3,28.0,30.21,NW,311,0.0,0.0,81,0.00,,,0.00,meteohub,2013-01-20 13:23:00,
2013-01-20 07:28:00,33.4,28.2,30.21,NW,311,0.0,0.0,81,0.00,,,0.00,meteohub,2013-01-20 13:28:00,
2013-01-20 07:33:00,33.4,28.2,30.22,NW,311,0.0,0.0,81,0.00,,,0.00,meteohub,2013-01-20 13:33:00,
2013-01-20 07:38:00,33.4,27.9,30.22,NW,311,0.0,0.0,80,0.00,,,0.00,meteohub,2013-01-20 13:38:00,
2013-01-20 07:43:00,33.4,27.9,30.22,NW,311,0.0,0.0,80,0.00,,,0.00,meteohub,2013-01-20 13:43:00,
2013-01-20 07:48:00,33.4,27.9,30.22,NW,311,0.0,0.0,80,0.00,,,0.00,meteohub,2013-01-20 13:48:00,
2013-01-20 07:53:00,33.4,27.9,30.22,NW,311,0.0,0.0,80,0.00,,,0.00,meteohub,2013-01-20 13:53:00,
2013-01-20 07:58:00,33.4,27.9,30.22,NNW,332,0.0,0.0,80,0.00,,,0.00,meteohub,2013-01-20 13:58:00,
2013-01-20 08:03:00,33.4,27.9,30.22,NNW,331,0.0,0.0,80,0.00,,,0.00,meteohub,2013-01-20 14:03:00,
2013-01-20 08:08:00,33.6,28.0,30.22,NNW,331,0.0,0.0,80,0.00,,,0.00,meteohub,2013-01-20 14:08:00,
2013-01-20 08:13:00,34.0,28.4,30.22,NNW,331,0.0,2.0,80,0.00,,,0.00,meteohub,2013-01-20 14:13:00,
2013-01-20 08:18:00,34.2,28.6,30.22,NNW,332,0.0,2.0,80,0.00,,,0.00,meteohub,2013-01-20 14:18:00,
2013-01-20 08:23:00,34.5,28.9,30.22,NNW,331,0.0,0.0,80,0.00,,,0.00,meteohub,2013-01-20 14:23:00,
2013-01-20 08:28:00,34.9,29.1,30.22,NNW,331,0.0,0.0,79,0.00,,,0.00,meteohub,2013-01-20 14:28:00,
2013-01-20 08:33:00,35.4,29.5,30.22,NNW,331,0.0,0.0,79,0.00,,,0.00,meteohub,2013-01-20 14:33:00,
2013-01-20 08:38:00,36.0,29.5,30.22,WNW,298,5.0,0.0,77,0.00,,,0.00,meteohub,2013-01-20 14:38:00,
2013-01-20 08:43:00,36.7,29.8,30.22,WNW,297,0.0,0.0,76,0.00,,,0.00,meteohub,2013-01-20 14:43:00,
2013-01-20 08:48:00,37.0,29.8,30.22,WNW,297,0.0,0.0,75,0.00,,,0.00,meteohub,2013-01-20 14:48:00,
2013-01-20 08:53:00,37.6,30.0,30.23,WNW,297,0.0,7.0,74,0.00,,,0.00,meteohub,2013-01-20 14:53:00,
2013-01-20 08:58:00,38.1,30.2,30.23,WNW,297,0.0,7.0,73,0.00,,,0.00,meteohub,2013-01-20 14:58:00,
2013-01-20 09:03:00,38.7,30.7,30.23,WNW,297,0.0,7.0,73,0.00,,,0.00,meteohub,2013-01-20 15:03:00,
2013-01-20 09:08:00,39.4,32.5,30.23,WNW,297,0.0,7.0,76,0.00,,,0.00,meteohub,2013-01-20 15:08:00,
2013-01-20 09:13:00,39.9,31.3,30.23,WNW,297,0.0,0.0,71,0.00,,,0.00,meteohub,2013-01-20 15:13:00,
2013-01-20 09:18:00,40.5,31.5,30.23,WNW,297,0.0,0.0,70,0.00,,,0.00,meteohub,2013-01-20 15:18:00,
2013-01-20 09:23:00,41.0,31.6,30.24,WNW,297,0.0,0.0,69,0.00,,,0.00,meteohub,2013-01-20 15:23:00,
2013-01-20 09:28:00,41.5,31.8,30.24,WNW,297,0.0,0.0,68,0.00,,,0.00,meteohub,2013-01-20 15:28:00,
2013-01-20 09:33:00,42.1,32.4,30.24,WNW,297,0.0,0.0,68,0.00,,,0.00,meteohub,2013-01-20 15:33:00,
2013-01-20 09:38:00,42.4,32.2,30.24,WNW,297,0.0,0.0,67,0.00,,,0.00,meteohub,2013-01-20 15:38:00,
2013-01-20 09:43:00,43.0,32.7,30.25,WNW,297,0.0,0.0,67,0.00,,,0.00,meteohub,2013-01-20 15:43:00,
2013-01-20 09:48:00,43.7,32.7,30.25,WNW,297,0.0,0.0,65,0.00,,,0.00,meteohub,2013-01-20 15:48:00,
2013-01-20 09:54:00,44.2,33.3,30.25,WNW,297,0.0,0.0,65,0.00,,,0.00,meteohub,2013-01-20 15:54:00,
2013-01-20 09:59:00,45.0,33.4,30.25,WNW,297,0.0,0.0,64,0.00,,,0.00,meteohub,2013-01-20 15:59:00,
2013-01-20 10:04:00,45.3,33.4,30.25,WNW,297,0.0,0.0,63,0.00,,,0.00,meteohub,2013-01-20 16:04:00,
2013-01-20 10:09:00,45.9,33.6,30.25,WNW,297,0.0,0.0,62,0.00,,,0.00,meteohub,2013-01-20 16:09:00,
2013-01-20 10:14:00,46.4,34.2,30.25,WNW,297,0.0,0.0,62,0.00,,,0.00,meteohub,2013-01-20 16:14:00,
2013-01-20 10:19:00,47.1,34.3,30.25,WNW,297,0.0,0.0,61,0.00,,,0.00,meteohub,2013-01-20 16:19:00,
2013-01-20 10:24:00,48.0,34.3,30.25,WNW,297,0.0,0.0,59,0.00,,,0.00,meteohub,2013-01-20 16:24:00,
2013-01-20 10:29:00,48.6,34.5,30.25,WNW,297,0.0,0.0,58,0.00,,,0.00,meteohub,2013-01-20 16:29:00,
2013-01-20 10:34:00,48.9,34.9,30.25,WNW,297,0.0,0.0,58,0.00,,,0.00,meteohub,2013-01-20 16:34:00,
2013-01-20 10:39:00,49.6,35.1,30.25,WNW,297,0.0,5.0,57,0.00,,,0.00,meteohub,2013-01-20 16:39:00,
2013-01-20 10:44:00,50.2,35.1,30.25,WNW,297,0.0,5.0,56,0.00,,,0.00,meteohub,2013-01-20 16:44:00,
2013-01-20 10:49:00,50.7,35.6,30.25,WNW,297,0.0,0.0,56,0.00,,,0.00,meteohub,2013-01-20 16:49:00,
2013-01-20 10:54:00,51.4,35.4,30.25,WNW,297,0.0,0.0,54,0.00,,,0.00,meteohub,2013-01-20 16:54:00,
2013-01-20 10:59:00,51.6,35.1,30.25,WNW,297,0.0,0.0,53,0.00,,,0.00,meteohub,2013-01-20 16:59:00,
2013-01-20 11:04:00,52.2,35.6,30.25,WNW,297,0.0,0.0,53,0.00,,,0.00,meteohub,2013-01-20 17:04:00,
2013-01-20 11:09:00,52.5,35.4,30.25,WNW,297,0.0,0.0,52,0.00,,,0.00,meteohub,2013-01-20 17:09:00,
2013-01-20 11:14:00,53.2,35.6,30.25,WNW,297,0.0,0.0,51,0.00,,,0.00,meteohub,2013-01-20 17:14:00,
2013-01-20 11:19:00,54.0,35.8,30.25,West,270,0.0,0.0,50,0.00,,,0.00,meteohub,2013-01-20 17:19:00,
2013-01-20 11:24:00,54.3,35.6,30.24,West,270,1.0,0.0,49,0.00,,,0.00,meteohub,2013-01-20 17:24:00,
2013-01-20 11:29:00,54.9,36.1,30.24,West,270,0.0,6.0,49,0.00,,,0.00,meteohub,2013-01-20 17:29:00,
2013-01-20 11:34:00,55.4,36.0,30.24,West,270,0.0,6.0,48,0.00,,,0.00,meteohub,2013-01-20 17:34:00,
2013-01-20 11:39:00,55.9,36.5,30.23,West,270,0.0,6.0,48,0.00,,,0.00,meteohub,2013-01-20 17:39:00,
2013-01-20 11:44:00,56.5,36.0,30.23,West,270,0.0,6.0,46,0.00,,,0.00,meteohub,2013-01-20 17:44:00,
2013-01-20 11:49:00,56.8,36.3,30.22,West,271,0.0,0.0,46,0.00,,,0.00,meteohub,2013-01-20 17:49:00,
2013-01-20 11:54:00,57.4,36.1,30.22,West,267,0.0,0.0,45,0.00,,,0.00,meteohub,2013-01-20 17:54:00,
2013-01-20 11:59:00,57.7,36.5,30.22,West,267,0.0,6.0,45,0.00,,,0.00,meteohub,2013-01-20 17:59:00,
2013-01-20 12:04:00,58.3,36.5,30.22,West,267,0.0,6.0,44,0.00,,,0.00,meteohub,2013-01-20 18:04:00,
2013-01-20 12:09:00,58.6,36.1,30.21,West,266,3.0,6.0,43,0.00,,,0.00,meteohub,2013-01-20 18:09:00,
2013-01-20 12:14:00,58.8,36.3,30.21,West,266,0.0,6.0,43,0.00,,,0.00,meteohub,2013-01-20 18:14:00,
2013-01-20 12:19:00,59.2,36.1,30.20,West,273,0.0,7.0,42,0.00,,,0.00,meteohub,2013-01-20 18:19:00,
2013-01-20 12:24:00,59.5,37.0,30.19,West,273,0.0,7.0,43,0.00,,,0.00,meteohub,2013-01-20 18:24:00,
2013-01-20 12:29:00,60.1,36.3,30.19,West,272,0.0,5.0,41,0.00,,,0.00,meteohub,2013-01-20 18:29:00,
2013-01-20 12:34:00,60.4,36.0,30.18,West,271,0.0,5.0,40,0.00,,,0.00,meteohub,2013-01-20 18:34:00,
2013-01-20 12:39:00,61.0,35.8,30.18,West,274,0.0,5.0,39,0.00,,,0.00,meteohub,2013-01-20 18:39:00,
2013-01-20 12:44:00,61.3,35.6,30.18,West,270,0.0,8.0,38,0.00,,,0.00,meteohub,2013-01-20 18:44:00,
2013-01-20 12:49:00,61.5,35.6,30.17,WSW,238,0.0,8.0,38,0.00,,,0.00,meteohub,2013-01-20 18:49:00,
2013-01-20 12:54:00,61.9,34.7,30.17,SW,221,4.0,8.0,36,0.00,,,0.00,meteohub,2013-01-20 18:54:00,
2013-01-20 12:59:00,61.9,34.7,30.16,SW,221,0.0,10.0,36,0.00,,,0.00,meteohub,2013-01-20 18:59:00,
2013-01-20 13:04:00,61.9,34.7,30.16,SW,231,6.0,10.0,36,0.00,,,0.00,meteohub,2013-01-20 19:04:00,
2013-01-20 13:09:00,61.9,34.7,30.15,WSW,256,0.0,11.0,36,0.00,,,0.00,meteohub,2013-01-20 19:09:00,
2013-01-20 13:14:00,62.1,34.9,30.15,SW,223,0.0,11.0,36,0.00,,,0.00,meteohub,2013-01-20 19:14:00,
2013-01-20 13:19:00,62.4,34.3,30.15,WSW,240,1.0,11.0,35,0.00,,,0.00,meteohub,2013-01-20 19:19:00,
2013-01-20 13:24:00,63.0,34.2,30.14,WSW,250,4.0,11.0,34,0.00,,,0.00,meteohub,2013-01-20 19:24:00,
2013-01-20 13:29:00,63.1,35.1,30.14,SW,225,6.0,7.0,35,0.00,,,0.00,meteohub,2013-01-20 19:29:00,
2013-01-20 13:34:00,63.3,34.5,30.14,SW,233,2.0,7.0,34,0.00,,,0.00,meteohub,2013-01-20 19:34:00,
2013-01-20 13:39:00,63.7,34.7,30.13,West,266,3.0,10.0,34,0.00,,,0.00,meteohub,2013-01-20 19:39:00,
2013-01-20 13:44:00,63.9,34.9,30.13,SW,226,0.0,10.0,34,0.00,,,0.00,meteohub,2013-01-20 19:44:00,
2013-01-20 13:49:00,64.0,35.1,30.13,West,271,0.0,10.0,34,0.00,,,0.00,meteohub,2013-01-20 19:49:00,
2013-01-20 13:54:00,64.4,34.7,30.13,SW,223,0.0,10.0,33,0.00,,,0.00,meteohub,2013-01-20 19:54:00,
2013-01-20 13:59:00,64.6,34.9,30.12,WSW,242,6.0,12.0,33,0.00,,,0.00,meteohub,2013-01-20 19:59:00,
2013-01-20 14:05:00,64.8,35.1,30.12,NW,306,0.0,12.0,33,0.00,,,0.00,meteohub,2013-01-20 20:05:00,
2013-01-20 14:10:00,64.9,35.1,30.12,WSW,250,3.0,12.0,33,0.00,,,0.00,meteohub,2013-01-20 20:10:00,
2013-01-20 14:15:00,65.3,34.7,30.12,WSW,249,0.0,12.0,32,0.00,,,0.00,meteohub,2013-01-20 20:15:00,
2013-01-20 14:20:00,65.7,35.1,30.12,SW,233,6.0,10.0,32,0.00,,,0.00,meteohub,2013-01-20 20:20:00,
2013-01-20 14:25:00,65.8,35.2,30.11,SW,230,0.0,10.0,32,0.00,,,0.00,meteohub,2013-01-20 20:25:00,
2013-01-20 14:30:00,66.2,34.7,30.11,SW,230,0.0,11.0,31,0.00,,,0.00,meteohub,2013-01-20 20:30:00,
2013-01-20 14:35:00,66.7,34.3,30.11,SW,234,0.0,11.0,30,0.00,,,0.00,meteohub,2013-01-20 20:35:00,
2013-01-20 14:40:00,67.1,33.8,30.11,WSW,243,0.0,7.0,29,0.00,,,0.00,meteohub,2013-01-20 20:40:00,
2013-01-20 14:45:00,67.3,34.0,30.11,West,268,0.0,7.0,29,0.00,,,0.00,meteohub,2013-01-20 20:45:00,
2013-01-20 14:50:00,67.5,33.3,30.10,WSW,251,5.0,10.0,28,0.00,,,0.00,meteohub,2013-01-20 20:50:00,
2013-01-20 14:55:00,67.3,32.2,30.10,SSW,201,0.0,10.0,27,0.00,,,0.00,meteohub,2013-01-20 20:55:00,
2013-01-20 15:00:00,67.5,33.3,30.10,WSW,251,4.0,10.0,28,0.00,,,0.00,meteohub,2013-01-20 21:00:00,
2013-01-20 15:05:00,67.5,33.3,30.10,WSW,256,6.0,10.0,28,0.00,,,0.00,meteohub,2013-01-20 21:05:00,
2013-01-20 15:10:00,67.5,33.3,30.10,WSW,250,0.0,10.0,28,0.00,,,0.00,meteohub,2013-01-20 21:10:00,
2013-01-20 15:15:00,67.5,34.2,30.09,WSW,238,0.0,10.0,29,0.00,,,0.00,meteohub,2013-01-20 21:15:00,
2013-01-20 15:20:00,67.6,33.4,30.09,West,266,0.0,11.0,28,0.00,,,0.00,meteohub,2013-01-20 21:20:00,
2013-01-20 15:25:00,68.2,33.8,30.09,SW,229,0.0,11.0,28,0.00,,,0.00,meteohub,2013-01-20 21:25:00,
2013-01-20 15:30:00,68.4,34.0,30.09,WSW,254,4.0,11.0,28,0.00,,,0.00,meteohub,2013-01-20 21:30:00,
2013-01-20 15:35:00,68.4,34.0,30.09,SW,231,2.0,11.0,28,0.00,,,0.00,meteohub,2013-01-20 21:35:00,
2013-01-20 15:40:00,68.5,33.3,30.09,WSW,248,0.0,7.0,27,0.00,,,0.00,meteohub,2013-01-20 21:40:00,
2013-01-20 15:45:00,68.5,33.3,30.09,West,262,0.0,7.0,27,0.00,,,0.00,meteohub,2013-01-20 21:45:00,
2013-01-20 15:50:00,68.7,31.5,30.09,WSW,255,0.0,7.0,25,0.00,,,0.00,meteohub,2013-01-20 21:50:00,
2013-01-20 15:55:00,69.1,31.8,30.09,WSW,238,2.0,7.0,25,0.00,,,0.00,meteohub,2013-01-20 21:55:00,
2013-01-20 16:00:00,69.3,30.9,30.09,SW,230,0.0,7.0,24,0.00,,,0.00,meteohub,2013-01-20 22:00:00,
2013-01-20 16:05:00,69.4,30.0,30.09,SW,225,3.0,7.0,23,0.00,,,0.00,meteohub,2013-01-20 22:05:00,
2013-01-20 16:10:00,69.4,30.0,30.09,SW,234,0.0,7.0,23,0.00,,,0.00,meteohub,2013-01-20 22:10:00,
2013-01-20 16:15:00,69.6,29.1,30.09,WSW,245,3.0,8.0,22,0.00,,,0.00,meteohub,2013-01-20 22:15:00,
2013-01-20 16:20:00,69.6,26.8,30.09,SW,236,7.0,8.0,20,0.00,,,0.00,meteohub,2013-01-20 22:20:00,
2013-01-20 16:25:00,69.6,26.8,30.09,SW,225,0.0,8.0,20,0.00,,,0.00,meteohub,2013-01-20 22:25:00,
2013-01-20 16:30:00,69.6,26.8,30.09,SW,226,5.0,12.0,20,0.00,,,0.00,meteohub,2013-01-20 22:30:00,
2013-01-20 16:35:00,69.6,26.8,30.08,SW,224,3.0,13.0,20,0.00,,,0.00,meteohub,2013-01-20 22:35:00,
2013-01-20 16:40:00,69.4,26.6,30.09,WSW,240,4.0,13.0,20,0.00,,,0.00,meteohub,2013-01-20 22:40:00,
2013-01-20 16:45:00,69.4,26.6,30.08,SW,235,3.0,13.0,20,0.00,,,0.00,meteohub,2013-01-20 22:45:00,
2013-01-20 16:50:00,69.4,26.6,30.08,SW,234,0.0,13.0,20,0.00,,,0.00,meteohub,2013-01-20 22:50:00,
2013-01-20 16:55:00,69.4,25.3,30.08,SW,218,0.0,10.0,19,0.00,,,0.00,meteohub,2013-01-20 22:55:00,
2013-01-20 17:00:00,69.4,27.9,30.08,SW,215,3.0,10.0,21,0.00,,,0.00,meteohub,2013-01-20 23:00:00,
2013-01-20 17:05:00,69.4,27.9,30.08,WSW,244,2.0,10.0,21,0.00,,,0.00,meteohub,2013-01-20 23:05:00,
2013-01-20 17:10:00,69.3,28.8,30.08,SW,228,1.0,10.0,22,0.00,,,0.00,meteohub,2013-01-20 23:10:00,
2013-01-20 17:15:00,69.3,29.8,30.09,SW,228,1.0,10.0,23,0.00,,,0.00,meteohub,2013-01-20 23:15:00,
2013-01-20 17:20:00,69.3,29.8,30.09,SW,226,0.0,10.0,23,0.00,,,0.00,meteohub,2013-01-20 23:20:00,
2013-01-20 17:25:00,69.4,30.0,30.09,SW,224,2.0,6.0,23,0.00,,,0.00,meteohub,2013-01-20 23:25:00,
2013-01-20 17:30:00,69.1,29.7,30.09,SW,223,2.0,6.0,23,0.00,,,0.00,meteohub,2013-01-20 23:30:00,
2013-01-20 17:35:00,68.9,29.7,30.09,SW,223,0.0,6.0,23,0.00,,,0.00,meteohub,2013-01-20 23:35:00,
2013-01-20 17:40:00,68.7,29.5,30.08,SW,223,0.0,6.0,23,0.00,,,0.00,meteohub,2013-01-20 23:40:00,
2013-01-20 17:45:00,68.5,29.3,30.09,SW,223,0.0,6.0,23,0.00,,,0.00,meteohub,2013-01-20 23:45:00,
2013-01-20 17:51:00,68.5,30.4,30.08,SW,223,0.0,6.0,24,0.00,,,0.00,meteohub,2013-01-20 23:51:00,
2013-01-20 17:56:00,68.5,29.3,30.08,SW,223,0.0,0.0,23,0.00,,,0.00,meteohub,2013-01-20 23:56:00,
2013-01-20 18:01:00,68.2,28.9,30.08,SW,223,0.0,0.0,23,0.00,,,0.00,meteohub,2013-01-21 00:01:00,
2013-01-20 18:06:00,67.6,29.5,30.08,SW,223,0.0,0.0,24,0.00,,,0.00,meteohub,2013-01-21 00:06:00,
2013-01-20 18:11:00,67.1,29.1,30.09,SW,223,0.0,0.0,24,0.00,,,0.00,meteohub,2013-01-21 00:11:00,
2013-01-20 18:16:00,66.6,29.7,30.09,SW,223,0.0,0.0,25,0.00,,,0.00,meteohub,2013-01-21 00:16:00,
2013-01-20 18:21:00,65.8,28.9,30.09,SW,223,0.0,0.0,25,0.00,,,0.00,meteohub,2013-01-21 00:21:00,
2013-01-20 18:26:00,65.1,29.3,30.08,SW,223,0.0,0.0,26,0.00,,,0.00,meteohub,2013-01-21 00:26:00,
2013-01-20 18:31:00,64.6,29.8,30.08,SW,223,0.0,0.0,27,0.00,,,0.00,meteohub,2013-01-21 00:31:00,
2013-01-20 18:36:00,63.9,30.2,30.08,SW,223,0.0,0.0,28,0.00,,,0.00,meteohub,2013-01-21 00:36:00,
2013-01-20 18:41:00,63.1,30.4,30.08,SW,223,0.0,0.0,29,0.00,,,0.00,meteohub,2013-01-21 00:41:00,
2013-01-20 18:46:00,62.4,30.6,30.09,SW,223,0.0,0.0,30,0.00,,,0.00,meteohub,2013-01-21 00:46:00,
2013-01-20 18:51:00,61.5,30.6,30.09,SW,223,0.0,0.0,31,0.00,,,0.00,meteohub,2013-01-21 00:51:00,
2013-01-20 18:56:00,60.8,30.0,30.09,SW,223,0.0,0.0,31,0.00,,,0.00,meteohub,2013-01-21 00:56:00,
2013-01-20 19:01:00,60.3,30.2,30.09,SW,223,0.0,0.0,32,0.00,,,0.00,meteohub,2013-01-21 01:01:00,
2013-01-20 19:06:00,59.5,30.4,30.09,SW,223,0.0,0.0,33,0.00,,,0.00,meteohub,2013-01-21 01:06:00,
2013-01-20 19:11:00,59.0,30.0,30.09,SW,223,0.0,0.0,33,0.00,,,0.00,meteohub,2013-01-21 01:11:00,
2013-01-20 19:16:00,58.5,30.2,30.10,SW,223,0.0,0.0,34,0.00,,,0.00,meteohub,2013-01-21 01:16:00,
2013-01-20 19:21:00,57.7,30.2,30.10,SW,223,0.0,0.0,35,0.00,,,0.00,meteohub,2013-01-21 01:21:00,
2013-01-20 19:26:00,57.0,30.4,30.10,SW,223,0.0,0.0,36,0.00,,,0.00,meteohub,2013-01-21 01:26:00,
2013-01-20 19:31:00,56.5,31.1,30.10,SW,223,0.0,0.0,38,0.00,,,0.00,meteohub,2013-01-21 01:31:00,
2013-01-20 19:36:00,55.9,31.3,30.10,SW,223,0.0,0.0,39,0.00,,,0.00,meteohub,2013-01-21 01:36:00,
2013-01-20 19:41:00,55.4,30.9,30.10,SW,223,0.0,0.0,39,0.00,,,0.00,meteohub,2013-01-21 01:41:00,
2013-01-20 19:47:00,55.0,29.8,30.10,SW,223,0.0,0.0,38,0.00,,,0.00,meteohub,2013-01-21 01:47:00,
2013-01-20 19:52:00,54.7,31.5,30.10,SW,223,0.0,0.0,41,0.00,,,0.00,meteohub,2013-01-21 01:52:00,
2013-01-20 19:57:00,54.3,31.1,30.10,SW,223,0.0,0.0,41,0.00,,,0.00,meteohub,2013-01-21 01:57:00,
2013-01-20 20:02:00,54.1,30.9,30.10,SW,223,0.0,0.0,41,0.00,,,0.00,meteohub,2013-01-21 02:02:00,
2013-01-20 20:07:00,53.8,32.4,30.11,SW,223,0.0,0.0,44,0.00,,,0.00,meteohub,2013-01-21 02:07:00,
2013-01-20 20:12:00,53.2,30.7,30.11,SW,223,0.0,0.0,42,0.00,,,0.00,meteohub,2013-01-21 02:12:00,
2013-01-20 20:17:00,52.9,30.9,30.11,SW,223,0.0,0.0,43,0.00,,,0.00,meteohub,2013-01-21 02:17:00,
2013-01-20 20:22:00,52.5,30.0,30.11,SW,223,0.0,0.0,42,0.00,,,0.00,meteohub,2013-01-21 02:22:00,
2013-01-20 20:28:00,52.3,30.6,30.11,SW,223,0.0,0.0,43,0.00,,,0.00,meteohub,2013-01-21 02:28:00,
2013-01-20 20:33:00,52.2,30.4,30.11,SW,223,0.0,0.0,43,0.00,,,0.00,meteohub,2013-01-21 02:33:00,
2013-01-20 20:38:00,52.0,31.3,30.11,SW,223,0.0,0.0,45,0.00,,,0.00,meteohub,2013-01-21 02:38:00,
2013-01-20 20:43:00,51.6,30.9,30.11,SW,223,0.0,0.0,45,0.00,,,0.00,meteohub,2013-01-21 02:43:00,
2013-01-20 20:48:00,51.3,31.6,30.11,SW,223,0.0,0.0,47,0.00,,,0.00,meteohub,2013-01-21 02:48:00,
2013-01-20 20:53:00,50.7,32.7,30.11,SW,223,0.0,0.0,50,0.00,,,0.00,meteohub,2013-01-21 02:53:00,
2013-01-20 20:58:00,50.0,31.6,30.11,SW,223,0.0,0.0,49,0.00,,,0.00,meteohub,2013-01-21 02:58:00,
2013-01-20 21:03:00,49.5,31.1,30.12,SW,223,0.0,0.0,49,0.00,,,0.00,meteohub,2013-01-21 03:03:00,
2013-01-20 21:08:00,48.9,31.1,30.12,SW,223,0.0,0.0,50,0.00,,,0.00,meteohub,2013-01-21 03:08:00,
2013-01-20 21:13:00,48.9,31.1,30.12,SW,223,0.0,0.0,50,0.00,,,0.00,meteohub,2013-01-21 03:13:00,
2013-01-20 21:18:00,48.7,31.8,30.12,SW,223,0.0,0.0,52,0.00,,,0.00,meteohub,2013-01-21 03:18:00,
2013-01-20 21:23:00,48.6,31.8,30.12,SW,223,0.0,0.0,52,0.00,,,0.00,meteohub,2013-01-21 03:23:00,
2013-01-20 21:28:00,48.2,31.8,30.12,SW,223,0.0,0.0,53,0.00,,,0.00,meteohub,2013-01-21 03:28:00,
2013-01-20 21:33:00,47.8,32.0,30.12,SW,223,0.0,0.0,54,0.00,,,0.00,meteohub,2013-01-21 03:33:00,
2013-01-20 21:38:00,47.5,31.6,30.12,SW,223,0.0,0.0,54,0.00,,,0.00,meteohub,2013-01-21 03:38:00,
2013-01-20 21:43:00,47.1,32.2,30.12,SW,223,0.0,0.0,56,0.00,,,0.00,meteohub,2013-01-21 03:43:00,
2013-01-20 21:48:00,46.9,32.0,30.12,SW,223,0.0,0.0,56,0.00,,,0.00,meteohub,2013-01-21 03:48:00,
2013-01-20 21:53:00,46.6,32.2,30.12,SW,223,0.0,0.0,57,0.00,,,0.00,meteohub,2013-01-21 03:53:00,
2013-01-20 21:58:00,46.4,32.0,30.13,SW,223,0.0,0.0,57,0.00,,,0.00,meteohub,2013-01-21 03:58:00,
2013-01-20 22:03:00,46.2,32.2,30.13,SW,223,0.0,0.0,58,0.00,,,0.00,meteohub,2013-01-21 04:03:00,
2013-01-20 22:08:00,45.9,32.0,30.13,SW,223,0.0,0.0,58,0.00,,,0.00,meteohub,2013-01-21 04:08:00,
2013-01-20 22:13:00,45.5,31.6,30.14,SW,223,0.0,0.0,58,0.00,,,0.00,meteohub,2013-01-21 04:13:00,
2013-01-20 22:18:00,45.1,32.0,30.14,SW,223,0.0,0.0,60,0.00,,,0.00,meteohub,2013-01-21 04:18:00,
2013-01-20 22:23:00,45.0,32.0,30.14,SW,223,0.0,0.0,60,0.00,,,0.00,meteohub,2013-01-21 04:23:00,
2013-01-20 22:28:00,44.8,32.2,30.14,SW,223,0.0,0.0,61,0.00,,,0.00,meteohub,2013-01-21 04:28:00,
2013-01-20 22:34:00,44.4,32.2,30.14,SW,223,0.0,0.0,62,0.00,,,0.00,meteohub,2013-01-21 04:34:00,
2013-01-20 22:39:00,44.1,32.4,30.14,SW,223,0.0,0.0,63,0.00,,,0.00,meteohub,2013-01-21 04:39:00,
2013-01-20 22:44:00,43.9,32.2,30.14,SW,223,0.0,0.0,63,0.00,,,0.00,meteohub,2013-01-21 04:44:00,
2013-01-20 22:49:00,43.5,31.8,30.14,SW,223,0.0,0.0,63,0.00,,,0.00,meteohub,2013-01-21 04:49:00,
2013-01-20 22:54:00,43.2,31.8,30.14,SW,223,0.0,0.0,64,0.00,,,0.00,meteohub,2013-01-21 04:54:00,
2013-01-20 22:59:00,43.0,31.6,30.14,SW,223,0.0,0.0,64,0.00,,,0.00,meteohub,2013-01-21 04:59:00,
2013-01-20 23:00:00,42.8,31.5,30.14,SW,223,0.0,0.0,64,0.00,,,0.00,meteohub,2013-01-21 05:00:00,
2013-01-20 23:03:00,42.6,31.6,30.14,SW,223,0.0,0.0,65,0.00,,,0.00,meteohub,2013-01-21 05:03:00,
2013-01-20 23:08:00,42.4,31.5,30.14,SW,223,0.0,0.0,65,0.00,,,0.00,meteohub,2013-01-21 05:08:00,
2013-01-20 23:13:00,42.4,31.5,30.14,SW,223,0.0,0.0,65,0.00,,,0.00,meteohub,2013-01-21 05:13:00,
2013-01-20 23:18:00,42.3,30.9,30.14,SW,223,0.0,0.0,64,0.00,,,0.00,meteohub,2013-01-21 05:18:00,
2013-01-20 23:23:00,42.3,31.3,30.14,SW,223,0.0,0.0,65,0.00,,,0.00,meteohub,2013-01-21 05:23:00,
2013-01-20 23:28:00,42.3,31.3,30.14,SW,223,0.0,0.0,65,0.00,,,0.00,meteohub,2013-01-21 05:28:00,
2013-01-20 23:33:00,42.3,31.3,30.15,SW,223,0.0,0.0,65,0.00,,,0.00,meteohub,2013-01-21 05:33:00,
2013-01-20 23:39:00,42.1,31.1,30.15,SW,223,0.0,0.0,65,0.00,,,0.00,meteohub,2013-01-21 05:39:00,
2013-01-20 23:44:00,42.1,31.5,30.15,SW,223,0.0,0.0,66,0.00,,,0.00,meteohub,2013-01-21 05:44:00,
2013-01-20 23:49:00,41.9,31.5,30.15,SW,223,0.0,0.0,66,0.00,,,0.00,meteohub,2013-01-21 05:49:00,
2013-01-20 23:54:00,41.5,31.1,30.15,SW,223,0.0,0.0,66,0.00,,,0.00,meteohub,2013-01-21 05:54:00,